Location: Les Salelles
(44.4192°N, 4.1044°E)
Time: 19:24:28
(UTC+00:00)

ATLAS 5 CENTAUR R/B - Pass Details

Date: 20 January 2021
Orbit: 511 x 1147 km, 63.3° (Epoch: 16 February)

Event Time Altitude Azimuth Distance (km) Brightness Sun altitude
Rises 18:39:45 0° 269° (W) 2,708 6.4 -21.7°
Reaches altitude 10° 18:42:34 10° 291° (WNW) 1,889 4.9 -22.2°
Maximum altitude 18:45:18 16° 332° (NNW) 1,595 3.9 -22.7°
Enters shadow 18:47:30 12° 4° (N) 1,899 3.9 -23.1°
